,,,PA_Meas_PMT16A,,PR_Meas_QMR101_102,,RH_Meas_QMH101,,SR_Meas_QMS101,,TA_Meas_QMH101,,GenWind,,GenWind,
date,time,status,PA,status,PR,status,RH,status,SR,status,TA,status,DirAvg,status,SpdAvg,
2011-02-24, 00:00:04,VALID,1001.16,VALID,0,VALID,90.5407,VALID,0,VALID,23.311,VALID,245,VALID,0.55,
2011-02-24, 00:01:04,VALID,1001.16,VALID,0,VALID,90.6017,VALID,0,VALID,23.2719,VALID,245,VALID,0.567578,
2011-02-24, 00:02:04,VALID,1001.21,VALID,0,VALID,90.6628,VALID,0,VALID,23.2329,VALID,245,VALID,0.517578,
2011-02-24, 00:03:04,VALID,1001.23,VALID,0,VALID,90.762,VALID,0,VALID,23.2134,VALID,245,VALID,0.586328,
2011-02-24, 00:04:04,VALID,1001.22,VALID,0,VALID,90.8688,VALID,0,VALID,23.1921,VALID,245,VALID,0.556641,
2011-02-24, 00:05:04,VALID,1001.26,VALID,0,VALID,90.9832,VALID,0,VALID,23.1939,VALID,245,VALID,0.653516,
2011-02-24, 00:06:04,VALID,1001.29,VALID,0,VALID,91.0748,VALID,0,VALID,23.1744,VALID,245,VALID,0.591016,
2011-02-24, 00:07:04,VALID,1001.31,VALID,0,VALID,91.1511,VALID,0,VALID,23.1549,VALID,245,VALID,0.534766,
2011-02-24, 00:08:04,VALID,1001.31,VALID,0,VALID,91.2045,VALID,0,VALID,23.1354,VALID,257,VALID,0.594141,
2011-02-24, 00:09:04,VALID,1001.28,VALID,0,VALID,91.2884,VALID,0,VALID,23.1141,VALID,258,VALID,0.470313,
2011-02-24, 00:10:04,VALID,1001.27,VALID,0,VALID,91.2884,VALID,0,VALID,23.1141,VALID,258,VALID,0.0914062,
2011-02-24, 00:11:04,VALID,1001.28,VALID,0,VALID,91.3266,VALID,0,VALID,23.1354,VALID,258,VALID,0,
2011-02-24, 00:12:04,VALID,1001.28,VALID,0,VALID,91.3723,VALID,0,VALID,23.1141,VALID,258,VALID,0,
2011-02-24, 00:13:04,VALID,1001.27,VALID,0,VALID,91.4486,VALID,0,VALID,23.1159,VALID,258,VALID,0,
2011-02-24, 00:14:04,VALID,1001.24,VALID,0,VALID,91.4791,VALID,0,VALID,23.0946,VALID,258,VALID,0.668359,
2011-02-24, 00:15:04,VALID,1001.25,VALID,0,VALID,91.5173,VALID,0,VALID,23.0964,VALID,258,VALID,0.378906,
2011-02-24, 00:16:04,VALID,1001.21,VALID,0,VALID,91.5402,VALID,0,VALID,23.0964,VALID,258,VALID,0.366797,
2011-02-24, 00:17:04,VALID,1001.19,VALID,0,VALID,91.5402,VALID,0,VALID,23.0964,VALID,258,VALID,0.235938,
2011-02-24, 00:18:04,VALID,1001.16,VALID,0,VALID,91.5554,VALID,0,VALID,23.0946,VALID,258,VALID,0,
2011-02-24, 00:19:04,VALID,1001.12,VALID,0,VALID,91.5402,VALID,0,VALID,23.1159,VALID,237,VALID,0.474609,
2011-02-24, 00:20:04,VALID,1001.14,VALID,0,VALID,91.5097,VALID,0,VALID,23.1159,VALID,229,VALID,0.437109,
2011-02-24, 00:21:04,VALID,1001.11,VALID,0,VALID,91.4334,VALID,0,VALID,23.1159,VALID,229,VALID,0.149219,
2011-02-24, 00:22:04,VALID,1001.12,VALID,0,VALID,91.4257,VALID,0,VALID,23.1159,VALID,229,VALID,0,
2011-02-24, 00:23:04,VALID,1001.08,VALID,0,VALID,91.4486,VALID,0,VALID,23.0751,VALID,229,VALID,0,
2011-02-24, 00:24:04,VALID,1001.05,VALID,0,VALID,91.4639,VALID,0,VALID,23.0769,VALID,229,VALID,0.139844,
2011-02-24, 00:25:04,VALID,1001.02,VALID,0,VALID,91.4868,VALID,0,VALID,23.0556,VALID,229,VALID,0.201953,
2011-02-24, 00:26:04,VALID,1001.02,VALID,0,VALID,91.502,VALID,0,VALID,23.0964,VALID,229,VALID,0.0226563,
2011-02-24, 00:27:04,VALID,1000.98,VALID,0,VALID,91.5173,VALID,0,VALID,23.0751,VALID,229,VALID,0.00273437,
2011-02-24, 00:28:04,VALID,1000.96,VALID,0,VALID,91.5402,VALID,0,VALID,23.0573,VALID,229,VALID,0.155859,
2011-02-24, 00:29:04,VALID,1000.95,VALID,0,VALID,91.5554,VALID,0,VALID,23.0378,VALID,229,VALID,0.157031,
2011-02-24, 00:30:04,VALID,1000.94,VALID,0,VALID,91.5631,VALID,0,VALID,23.0378,VALID,229,VALID,0.247656,
2011-02-24, 00:31:04,VALID,1000.95,VALID,0,VALID,91.5783,VALID,0,VALID,23.0378,VALID,229,VALID,0.0433594,
2011-02-24, 00:32:04,VALID,1000.91,VALID,0,VALID,91.5783,VALID,0,VALID,23.0378,VALID,229,VALID,0.301562,
2011-02-24, 00:33:04,VALID,1000.87,VALID,0,VALID,91.6165,VALID,0,VALID,23.0591,VALID,229,VALID,0.321875,
2011-02-24, 00:34:04,VALID,1000.86,VALID,0,VALID,91.586,VALID,0,VALID,23.0378,VALID,229,VALID,0.277734,
2011-02-24, 00:35:04,VALID,1000.82,VALID,0,VALID,91.586,VALID,0,VALID,23.0378,VALID,229,VALID,0.323047,
2011-02-24, 00:36:04,VALID,1000.82,VALID,0,VALID,91.6088,VALID,0,VALID,23.0786,VALID,229,VALID,0.414844,
2011-02-24, 00:37:04,VALID,1000.78,VALID,0,VALID,91.5936,VALID,0,VALID,23.0786,VALID,229,VALID,0.524609,
2011-02-24, 00:38:04,VALID,1000.78,VALID,0,VALID,91.5783,VALID,0,VALID,23.0573,VALID,229,VALID,0.486719,
2011-02-24, 00:39:04,VALID,1000.77,VALID,0,VALID,91.6012,VALID,0,VALID,23.0573,VALID,229,VALID,0.420703,
2011-02-24, 00:40:04,VALID,1000.76,VALID,0,VALID,91.6165,VALID,0,VALID,23.0786,VALID,229,VALID,0.498047,
2011-02-24, 00:41:04,VALID,1000.76,VALID,0,VALID,91.6317,VALID,0,VALID,23.0786,VALID,304,VALID,0.541406,
2011-02-24, 00:42:04,VALID,1000.74,VALID,0,VALID,91.647,VALID,0,VALID,23.0786,VALID,304,VALID,0.694922,
2011-02-24, 00:43:04,VALID,1000.72,VALID,0,VALID,91.6928,VALID,0,VALID,23.0751,VALID,315,VALID,0.911328,
2011-02-24, 00:44:04,VALID,1000.69,VALID,0,VALID,91.7767,VALID,0,VALID,23.0964,VALID,331,VALID,0.975781,
2011-02-24, 00:45:04,VALID,1000.7,VALID,0,VALID,91.7843,VALID,0,VALID,23.0964,VALID,336,VALID,1.00859,
2011-02-24, 00:46:04,VALID,1000.66,VALID,0,VALID,91.8148,VALID,0,VALID,23.0769,VALID,352,VALID,1.01914,
2011-02-24, 00:47:04,VALID,1000.68,VALID,0,VALID,91.853,VALID,0,VALID,23.0573,VALID,343,VALID,1.28359,
2011-02-24, 00:48:04,VALID,1000.7,VALID,0,VALID,91.8606,VALID,0.112286,VALID,23.0361,VALID,348,VALID,1.12734,
2011-02-24, 00:49:04,VALID,1000.65,VALID,0,VALID,91.8454,VALID,0,VALID,23.0378,VALID,352,VALID,1.22852,
2011-02-24, 00:50:04,VALID,1000.65,VALID,0,VALID,91.853,VALID,0,VALID,23.0378,VALID,11,VALID,1.16797,
2011-02-24, 00:51:04,VALID,1000.66,VALID,0,VALID,91.8911,VALID,0,VALID,23.0378,VALID,3,VALID,1.34687,
2011-02-24, 00:52:04,VALID,1000.66,VALID,0,VALID,91.8988,VALID,0,VALID,23.0166,VALID,23,VALID,1.04531,
2011-02-24, 00:53:04,VALID,1000.6,VALID,0,VALID,91.853,VALID,0,VALID,22.9988,VALID,349,VALID,1.07773,
2011-02-24, 00:54:04,VALID,1000.67,VALID,0,VALID,91.7004,VALID,0,VALID,22.9793,VALID,315,VALID,1.03984,
2011-02-24, 00:55:04,VALID,1000.66,VALID,0,VALID,91.5402,VALID,0.112286,VALID,23.0573,VALID,326,VALID,0.244922,
2011-02-24, 00:56:04,VALID,1000.65,VALID,0,VALID,91.4334,VALID,0,VALID,23.0573,VALID,326,VALID,1.11641,
2011-02-24, 00:57:04,VALID,1000.64,VALID,0,VALID,91.1663,VALID,0.112286,VALID,23.0573,VALID,335,VALID,1.17383,
2011-02-24, 00:58:04,VALID,1000.63,VALID,0,VALID,90.9527,VALID,0,VALID,23.0769,VALID,355,VALID,1.42383,
2011-02-24, 00:59:04,VALID,1000.59,VALID,0,VALID,90.7849,VALID,0,VALID,23.0751,VALID,353,VALID,1.63477,
2011-02-24, 01:00:04,VALID,1000.53,VALID,0,VALID,90.5865,VALID,0,VALID,23.0946,VALID,34,VALID,1.0043,
2011-02-24, 01:01:04,VALID,1000.5,VALID,0,VALID,90.5331,VALID,0,VALID,23.1141,VALID,15,VALID,1.06875,
2011-02-24, 01:02:04,VALID,1000.52,VALID,0,VALID,90.4644,VALID,0.112286,VALID,23.1141,VALID,16,VALID,0.65625,
2011-02-24, 01:03:04,VALID,1000.53,VALID,0,VALID,90.3805,VALID,0,VALID,23.0946,VALID,352,VALID,0.377344,
2011-02-24, 01:04:04,VALID,1000.57,VALID,0,VALID,90.2431,VALID,0,VALID,23.1159,VALID,352,VALID,0.171875,
2011-02-24, 01:05:04,VALID,1000.58,VALID,0,VALID,90.1668,VALID,0,VALID,23.1159,VALID,352,VALID,0,
2011-02-24, 01:06:04,VALID,1000.58,VALID,0,VALID,90.1287,VALID,0,VALID,23.1354,VALID,352,VALID,0,
2011-02-24, 01:07:04,VALID,1000.57,VALID,0,VALID,90.1974,VALID,0,VALID,23.1549,VALID,352,VALID,0,
2011-02-24, 01:08:04,VALID,1000.51,VALID,0,VALID,90.2889,VALID,0,VALID,23.1336,VALID,352,VALID,0,
2011-02-24, 01:09:04,VALID,1000.54,VALID,0,VALID,90.3042,VALID,0,VALID,23.1354,VALID,352,VALID,0,
2011-02-24, 01:10:04,VALID,1000.52,VALID,0,VALID,90.3194,VALID,0,VALID,23.1549,VALID,352,VALID,0,
2011-02-24, 01:11:04,VALID,1000.47,VALID,0,VALID,90.3728,VALID,0,VALID,23.1744,VALID,247,VALID,0.475391,
2011-02-24, 01:12:04,VALID,1000.38,VALID,0,VALID,90.1668,VALID,0,VALID,23.1744,VALID,200,VALID,0.785937,
2011-02-24, 01:13:04,VALID,1000.27,VALID,0,VALID,90.0371,VALID,0,VALID,23.1939,VALID,163,VALID,0.728516,
2011-02-24, 01:14:04,VALID,1000.17,VALID,0,VALID,89.854,VALID,0,VALID,23.1921,VALID,120,VALID,1.18008,
2011-02-24, 01:15:04,VALID,1000.14,VALID,0,VALID,89.7472,VALID,0,VALID,23.2117,VALID,93,VALID,1.5082,
2011-02-24, 01:16:04,VALID,1000.13,VALID,0,VALID,89.7854,VALID,0,VALID,23.2312,VALID,94,VALID,1.37656,
2011-02-24, 01:17:04,VALID,1000.12,VALID,0,VALID,89.8769,VALID,0,VALID,23.2524,VALID,106,VALID,0.920313,
2011-02-24, 01:18:04,VALID,1000.13,VALID,0,VALID,89.7701,VALID,0,VALID,23.2329,VALID,138,VALID,0.598437,
2011-02-24, 01:19:04,VALID,1000.15,VALID,0,VALID,89.8006,VALID,0,VALID,23.2117,VALID,167,VALID,1.00742,
2011-02-24, 01:20:04,VALID,1000.18,VALID,0,VALID,89.9303,VALID,0,VALID,23.2719,VALID,175,VALID,0.824219,
2011-02-24, 01:21:04,VALID,1000.17,VALID,0,VALID,90.0066,VALID,0.112286,VALID,23.2507,VALID,175,VALID,0.185156,
2011-02-24, 01:22:04,VALID,1000.22,VALID,0,VALID,90.0066,VALID,0,VALID,23.2312,VALID,175,VALID,0,
2011-02-24, 01:23:04,VALID,1000.24,VALID,0,VALID,90.0066,VALID,0,VALID,23.2524,VALID,315,VALID,0.611719,
2011-02-24, 01:24:04,VALID,1000.23,VALID,0,VALID,90.0753,VALID,0,VALID,23.2719,VALID,323,VALID,0.764063,
2011-02-24, 01:25:04,VALID,1000.21,VALID,0,VALID,90.0524,VALID,0,VALID,23.2524,VALID,350,VALID,0.835938,
2011-02-24, 01:26:04,VALID,1000.2,VALID,0,VALID,90.0371,VALID,0,VALID,23.2329,VALID,15,VALID,0.833203,
2011-02-24, 01:27:04,VALID,1000.16,VALID,0,VALID,90.0906,VALID,0,VALID,23.2134,VALID,351,VALID,0.826953,
2011-02-24, 01:28:04,VALID,1000.17,VALID,0,VALID,90.1745,VALID,0.112286,VALID,23.1921,VALID,351,VALID,0.485938,
2011-02-24, 01:29:04,VALID,1000.16,VALID,0,VALID,90.2508,VALID,0,VALID,23.1939,VALID,351,VALID,0.0519531,
2011-02-24, 01:30:04,VALID,1000.15,VALID,0,VALID,90.3576,VALID,0,VALID,23.1726,VALID,351,VALID,0.287891,
2011-02-24, 01:31:04,VALID,1000.12,VALID,0,VALID,90.4415,VALID,0.112286,VALID,23.1531,VALID,311,VALID,0.664453,
2011-02-24, 01:32:04,VALID,1000.13,VALID,0,VALID,90.4568,VALID,0,VALID,23.1531,VALID,294,VALID,0.507031,
2011-02-24, 01:33:04,VALID,1000.1,VALID,0,VALID,90.5178,VALID,0,VALID,23.1549,VALID,294,VALID,0.0597656,
2011-02-24, 01:34:04,VALID,1000.08,VALID,0,VALID,90.5331,VALID,0.112286,VALID,23.1354,VALID,294,VALID,0,
2011-02-24, 01:35:04,VALID,1000.07,VALID,0,VALID,90.5788,VALID,0.112286,VALID,23.1141,VALID,294,VALID,0,
2011-02-24, 01:36:04,VALID,1000.05,VALID,0,VALID,90.6551,VALID,0,VALID,23.0946,VALID,294,VALID,0,
2011-02-24, 01:37:04,VALID,1000.02,VALID,0,VALID,90.762,VALID,0,VALID,23.0946,VALID,294,VALID,0,
2011-02-24, 01:38:04,VALID,1000.01,VALID,0,VALID,90.678,VALID,0,VALID,23.0573,VALID,279,VALID,0.205469,
2011-02-24, 01:39:04,VALID,999.99,VALID,0,VALID,90.4491,VALID,0,VALID,23.0573,VALID,279,VALID,0.305469,
2011-02-24, 01:40:04,VALID,999.969,VALID,0,VALID,90.3652,VALID,0,VALID,23.0556,VALID,279,VALID,0.180469,
2011-02-24, 01:41:04,VALID,999.93,VALID,0,VALID,90.2126,VALID,0.112286,VALID,23.0556,VALID,213,VALID,0.676172,
2011-02-24, 01:42:04,VALID,999.898,VALID,0,VALID,89.6328,VALID,0,VALID,23.0361,VALID,247,VALID,1.24453,
2011-02-24, 01:43:04,VALID,999.886,VALID,0,VALID,88.8927,VALID,0,VALID,23.0964,VALID,239,VALID,0.989062,
2011-02-24, 01:44:04,VALID,999.853,VALID,0,VALID,88.3052,VALID,0,VALID,23.0964,VALID,256,VALID,0.407813,
2011-02-24, 01:45:04,VALID,999.82,VALID,0,VALID,87.9237,VALID,0,VALID,23.1354,VALID,246,VALID,0.501172,
2011-02-24, 01:46:04,VALID,999.841,VALID,0,VALID,88.0306,VALID,0,VALID,23.1549,VALID,236,VALID,0.713281,
2011-02-24, 01:47:04,VALID,999.779,VALID,0,VALID,87.8169,VALID,0,VALID,23.1159,VALID,213,VALID,0.679297,
2011-02-24, 01:48:04,VALID,999.738,VALID,0,VALID,87.8017,VALID,0,VALID,23.1549,VALID,238,VALID,0.407422,
2011-02-24, 01:49:04,VALID,999.712,VALID,0,VALID,87.939,VALID,0,VALID,23.1549,VALID,246,VALID,0.837109,
2011-02-24, 01:50:04,VALID,999.713,VALID,0,VALID,87.8703,VALID,0,VALID,23.1354,VALID,194,VALID,0.903516,
2011-02-24, 01:51:04,VALID,999.692,VALID,0,VALID,87.7559,VALID,0,VALID,23.1549,VALID,210,VALID,1.23516,
2011-02-24, 01:52:04,VALID,999.726,VALID,0,VALID,87.7177,VALID,0,VALID,23.1744,VALID,226,VALID,0.783984,
2011-02-24, 01:53:04,VALID,999.688,VALID,0,VALID,87.6872,VALID,0,VALID,23.1744,VALID,246,VALID,1.11563,
2011-02-24, 01:54:04,VALID,999.723,VALID,0,VALID,87.6109,VALID,0,VALID,23.1744,VALID,242,VALID,0.813281,
2011-02-24, 01:55:04,VALID,999.703,VALID,0,VALID,87.6872,VALID,0,VALID,23.1336,VALID,267,VALID,0.873438,
2011-02-24, 01:56:04,VALID,999.682,VALID,0,VALID,87.7711,VALID,0,VALID,23.1744,VALID,297,VALID,0.346484,
2011-02-24, 01:57:04,VALID,999.688,VALID,0,VALID,87.9237,VALID,0,VALID,23.1354,VALID,298,VALID,0.44375,
2011-02-24, 01:58:04,VALID,999.671,VALID,0,VALID,88.1068,VALID,0,VALID,23.0981,VALID,298,VALID,0.000390625,
2011-02-24, 01:59:04,VALID,999.647,VALID,0,VALID,88.206,VALID,0,VALID,23.0591,VALID,298,VALID,0,
2011-02-24, 02:00:04,VALID,999.624,VALID,0,VALID,88.3815,VALID,0,VALID,23.0591,VALID,298,VALID,0.317969,
2011-02-24, 02:01:04,VALID,999.623,VALID,0,VALID,88.29,VALID,0,VALID,22.9988,VALID,208,VALID,1.12109,
2011-02-24, 02:02:04,VALID,999.637,VALID,0,VALID,88.3129,VALID,0,VALID,23.0201,VALID,238,VALID,0.904688,
2011-02-24, 02:03:04,VALID,999.648,VALID,0,VALID,88.351,VALID,0,VALID,23.0183,VALID,264,VALID,0.451562,
2011-02-24, 02:04:04,VALID,999.622,VALID,0,VALID,88.2747,VALID,0,VALID,23.0006,VALID,280,VALID,0.635547,
2011-02-24, 02:05:04,VALID,999.635,VALID,0,VALID,88.3357,VALID,0,VALID,23.0006,VALID,286,VALID,0.610547,
2011-02-24, 02:06:04,VALID,999.618,VALID,0,VALID,88.4349,VALID,0,VALID,22.9615,VALID,293,VALID,0.775781,
2011-02-24, 02:07:04,VALID,999.596,VALID,0,VALID,88.6409,VALID,0,VALID,22.942,VALID,293,VALID,0.426562,
2011-02-24, 02:08:04,VALID,999.56,VALID,0,VALID,88.8622,VALID,0,VALID,22.9225,VALID,294,VALID,0.329297,
2011-02-24, 02:09:04,VALID,999.592,VALID,0,VALID,88.9843,VALID,0,VALID,22.8818,VALID,294,VALID,0.455469,
2011-02-24, 02:10:04,VALID,999.563,VALID,0,VALID,89.0758,VALID,0,VALID,22.8835,VALID,294,VALID,0.319141,
2011-02-24, 02:11:04,VALID,999.573,VALID,0,VALID,89.2132,VALID,0,VALID,22.864,VALID,293,VALID,0.690625,
2011-02-24, 02:12:04,VALID,999.598,VALID,0,VALID,88.8698,VALID,0,VALID,22.825,VALID,297,VALID,1.02578,
2011-02-24, 02:13:04,VALID,999.602,VALID,0,VALID,88.7706,VALID,0,VALID,22.8427,VALID,277,VALID,0.403906,
2011-02-24, 02:14:04,VALID,999.573,VALID,0,VALID,88.9461,VALID,0,VALID,22.8427,VALID,277,VALID,0.186719,
2011-02-24, 02:15:04,VALID,999.553,VALID,0,VALID,88.9003,VALID,0,VALID,22.8037,VALID,259,VALID,0.652344,
2011-02-24, 02:16:04,VALID,999.566,VALID,0,VALID,88.8469,VALID,0,VALID,22.8037,VALID,262,VALID,0.875391,
2011-02-24, 02:17:04,VALID,999.57,VALID,0,VALID,88.6562,VALID,0,VALID,22.8037,VALID,282,VALID,1.11953,
2011-02-24, 02:18:04,VALID,999.526,VALID,0,VALID,88.6638,VALID,0,VALID,22.8232,VALID,251,VALID,0.866406,
2011-02-24, 02:19:04,VALID,999.526,VALID,0,VALID,88.7096,VALID,0,VALID,22.7825,VALID,234,VALID,0.247656,
2011-02-24, 02:20:04,VALID,999.502,VALID,0,VALID,88.6714,VALID,0,VALID,22.7842,VALID,232,VALID,0.484766,
2011-02-24, 02:21:04,VALID,999.485,VALID,0,VALID,88.6943,VALID,0,VALID,22.7842,VALID,238,VALID,0.546484,
2011-02-24, 02:22:04,VALID,999.483,VALID,0,VALID,88.8393,VALID,0,VALID,22.7842,VALID,226,VALID,0.454688,
2011-02-24, 02:23:04,VALID,999.478,VALID,0,VALID,88.824,VALID,0,VALID,22.7842,VALID,234,VALID,0.675781,
2011-02-24, 02:24:04,VALID,999.408,VALID,0,VALID,88.8164,VALID,0,VALID,22.7647,VALID,211,VALID,0.539844,
2011-02-24, 02:25:04,VALID,999.423,VALID,0,VALID,88.8088,VALID,0,VALID,22.7647,VALID,231,VALID,0.682813,
2011-02-24, 02:26:04,VALID,999.412,VALID,0,VALID,88.8393,VALID,0,VALID,22.7842,VALID,233,VALID,0.439063,
2011-02-24, 02:27:04,VALID,999.41,VALID,0,VALID,88.9156,VALID,0,VALID,22.7647,VALID,233,VALID,0.610937,
2011-02-24, 02:28:04,VALID,999.381,VALID,0,VALID,88.908,VALID,0,VALID,22.786,VALID,233,VALID,0.511328,
2011-02-24, 02:29:04,VALID,999.354,VALID,0,VALID,88.8774,VALID,0,VALID,22.7647,VALID,233,VALID,0.433203,
2011-02-24, 02:30:04,VALID,999.351,VALID,0,VALID,88.8546,VALID,0,VALID,22.786,VALID,226,VALID,0.123828,
2011-02-24, 02:31:04,VALID,999.346,VALID,0,VALID,88.9537,VALID,0,VALID,22.786,VALID,225,VALID,0.715234,
2011-02-24, 02:32:04,VALID,999.336,VALID,0,VALID,88.9003,VALID,0,VALID,22.786,VALID,212,VALID,0.705078,
2011-02-24, 02:33:04,VALID,999.343,VALID,0,VALID,88.8317,VALID,0,VALID,22.786,VALID,211,VALID,0.797656,
2011-02-24, 02:34:04,VALID,999.318,VALID,0,VALID,88.7172,VALID,0,VALID,22.8037,VALID,211,VALID,0.639453,
2011-02-24, 02:35:04,VALID,999.316,VALID,0,VALID,88.763,VALID,0,VALID,22.7842,VALID,211,VALID,0.650391,
2011-02-24, 02:36:04,VALID,999.315,VALID,0,VALID,88.7859,VALID,0,VALID,22.825,VALID,234,VALID,0.844141,
2011-02-24, 02:37:04,VALID,999.303,VALID,0,VALID,88.7325,VALID,0,VALID,22.8445,VALID,220,VALID,0.694922,
2011-02-24, 02:38:04,VALID,999.294,VALID,0,VALID,88.6943,VALID,0,VALID,22.8232,VALID,217,VALID,0.702734,
2011-02-24, 02:39:04,VALID,999.243,VALID,0,VALID,88.702,VALID,0,VALID,22.8445,VALID,217,VALID,0.875391,
2011-02-24, 02:40:04,VALID,999.258,VALID,0,VALID,88.6562,VALID,0,VALID,22.8445,VALID,217,VALID,0.777344,
2011-02-24, 02:41:04,VALID,999.231,VALID,0,VALID,88.7325,VALID,0,VALID,22.8835,VALID,217,VALID,0.582812,
2011-02-24, 02:42:04,VALID,999.204,VALID,0,VALID,88.824,VALID,0,VALID,22.864,VALID,213,VALID,0.794922,
2011-02-24, 02:43:04,VALID,999.188,VALID,0,VALID,88.7859,VALID,0,VALID,22.8427,VALID,184,VALID,0.996875,
2011-02-24, 02:44:04,VALID,999.2,VALID,0,VALID,88.9309,VALID,0,VALID,22.864,VALID,187,VALID,0.826953,
2011-02-24, 02:45:04,VALID,999.179,VALID,0,VALID,89.114,VALID,0,VALID,22.864,VALID,203,VALID,0.810547,
2011-02-24, 02:46:04,VALID,999.147,VALID,0,VALID,89.1216,VALID,0,VALID,22.8445,VALID,185,VALID,1.09102,
2011-02-24, 02:47:04,VALID,999.137,VALID,0,VALID,89.114,VALID,0,VALID,22.864,VALID,193,VALID,0.923437,
2011-02-24, 02:48:04,VALID,999.118,VALID,0,VALID,89.2437,VALID,0,VALID,22.8818,VALID,197,VALID,0.960156,
2011-02-24, 02:49:04,VALID,999.101,VALID,0,VALID,89.3505,VALID,0,VALID,22.9225,VALID,198,VALID,0.842188,
2011-02-24, 02:50:04,VALID,999.111,VALID,0,VALID,89.4878,VALID,0,VALID,22.9225,VALID,175,VALID,1.03398,
2011-02-24, 02:51:04,VALID,999.065,VALID,0,VALID,89.5794,VALID,0,VALID,22.903,VALID,158,VALID,1.0418,
2011-02-24, 02:52:04,VALID,999.051,VALID,0,VALID,89.648,VALID,0,VALID,22.8427,VALID,157,VALID,1.26133,
2011-02-24, 02:53:04,VALID,999.058,VALID,0,VALID,89.648,VALID,0,VALID,22.8445,VALID,157,VALID,1.06328,
2011-02-24, 02:54:04,VALID,999.057,VALID,0,VALID,89.6786,VALID,0,VALID,22.825,VALID,149,VALID,0.9875,
2011-02-24, 02:55:04,VALID,999.047,VALID,0,VALID,89.8083,VALID,0,VALID,22.825,VALID,147,VALID,0.946094,
2011-02-24, 02:56:04,VALID,999.023,VALID,0,VALID,89.8388,VALID,0,VALID,22.7842,VALID,148,VALID,0.665625,
2011-02-24, 02:57:04,VALID,998.997,VALID,0,VALID,89.9532,VALID,0,VALID,22.786,VALID,148,VALID,0.719141,
2011-02-24, 02:58:04,VALID,998.986,VALID,0,VALID,90.0371,VALID,0,VALID,22.7647,VALID,123,VALID,0.879297,
2011-02-24, 02:59:04,VALID,998.953,VALID,0,VALID,90.2966,VALID,0,VALID,22.7647,VALID,99,VALID,1.24063,
2011-02-24, 03:00:04,VALID,998.963,VALID,0,VALID,90.5102,VALID,0,VALID,22.7045,VALID,91,VALID,1.26445,
2011-02-24, 03:01:04,VALID,998.945,VALID,0,VALID,90.7162,VALID,0,VALID,22.6655,VALID,86,VALID,1.05352,
2011-02-24, 03:02:04,VALID,998.949,VALID,0,VALID,90.8917,VALID,0,VALID,22.6264,VALID,89,VALID,1.18828,
2011-02-24, 03:03:04,VALID,998.957,VALID,0,VALID,91.029,VALID,0,VALID,22.5874,VALID,93,VALID,0.919531,
2011-02-24, 03:04:04,VALID,998.958,VALID,0,VALID,91.174,VALID,0,VALID,22.5892,VALID,90,VALID,1.03047,
2011-02-24, 03:05:04,VALID,998.909,VALID,0,VALID,91.2808,VALID,0.112286,VALID,22.5484,VALID,88,VALID,0.794531,
2011-02-24, 03:06:04,VALID,998.88,VALID,0,VALID,91.3952,VALID,0,VALID,22.5696,VALID,93,VALID,0.854688,
2011-02-24, 03:07:04,VALID,998.899,VALID,0,VALID,91.4639,VALID,0,VALID,22.5289,VALID,87,VALID,0.578906,
2011-02-24, 03:08:04,VALID,998.873,VALID,0,VALID,91.5326,VALID,0,VALID,22.5289,VALID,87,VALID,0.655078,
2011-02-24, 03:09:04,VALID,998.869,VALID,0,VALID,91.6012,VALID,0,VALID,22.5501,VALID,87,VALID,0.408984,
2011-02-24, 03:10:04,VALID,998.843,VALID,0,VALID,91.647,VALID,0,VALID,22.5501,VALID,87,VALID,0.627344,
2011-02-24, 03:11:04,VALID,998.843,VALID,0.5,VALID,91.6851,VALID,0,VALID,22.5289,VALID,100,VALID,0.262891,
2011-02-24, 03:12:04,VALID,998.8,VALID,0,VALID,91.7157,VALID,0,VALID,22.5094,VALID,100,VALID,0.0246094,
2011-02-24, 03:13:04,VALID,998.8,VALID,0,VALID,91.792,VALID,0,VALID,22.5323,VALID,100,VALID,0.701172,
2011-02-24, 03:14:04,VALID,998.773,VALID,0,VALID,91.8225,VALID,0,VALID,22.5519,VALID,100,VALID,0.596094,
2011-02-24, 03:15:04,VALID,998.781,VALID,0,VALID,91.8606,VALID,0,VALID,22.5519,VALID,101,VALID,0.658594,
2011-02-24, 03:16:04,VALID,998.745,VALID,0,VALID,91.8683,VALID,0,VALID,22.5306,VALID,101,VALID,0.3125,
2011-02-24, 03:17:04,VALID,998.751,VALID,0,VALID,91.9217,VALID,0,VALID,22.5519,VALID,101,VALID,0.426562,
2011-02-24, 03:18:04,VALID,998.769,VALID,0,VALID,91.9445,VALID,0,VALID,22.5714,VALID,101,VALID,0.482031,
2011-02-24, 03:19:04,VALID,998.783,VALID,0,VALID,91.9445,VALID,0,VALID,22.5501,VALID,101,VALID,0.340625,
2011-02-24, 03:20:04,VALID,998.755,VALID,0,VALID,91.9369,VALID,0,VALID,22.5501,VALID,101,VALID,0,
2011-02-24, 03:21:04,VALID,998.785,VALID,0,VALID,91.9217,VALID,0,VALID,22.5714,VALID,101,VALID,0,
2011-02-24, 03:22:04,VALID,998.793,VALID,0,VALID,91.914,VALID,0,VALID,22.5714,VALID,101,VALID,0,
2011-02-24, 03:23:04,VALID,998.788,VALID,0,VALID,91.9369,VALID,0,VALID,22.5696,VALID,101,VALID,0,
2011-02-24, 03:24:04,VALID,998.786,VALID,0,VALID,91.8911,VALID,0,VALID,22.5909,VALID,101,VALID,0,
2011-02-24, 03:25:04,VALID,998.79,VALID,0,VALID,91.9293,VALID,0,VALID,22.5696,VALID,101,VALID,0,
2011-02-24, 03:26:04,VALID,998.762,VALID,0,VALID,91.9293,VALID,0,VALID,22.5696,VALID,101,VALID,0,
2011-02-24, 03:27:04,VALID,998.779,VALID,0,VALID,91.9522,VALID,0,VALID,22.5696,VALID,101,VALID,0,
2011-02-24, 03:28:04,VALID,998.809,VALID,0,VALID,91.9903,VALID,0,VALID,22.5696,VALID,101,VALID,0,
2011-02-24, 03:29:04,VALID,998.784,VALID,0,VALID,91.998,VALID,0,VALID,22.5696,VALID,101,VALID,0,
2011-02-24, 03:30:04,VALID,998.812,VALID,0,VALID,92.0056,VALID,0,VALID,22.5501,VALID,101,VALID,0,
2011-02-24, 03:31:04,VALID,998.786,VALID,0,VALID,92.0056,VALID,0,VALID,22.5519,VALID,101,VALID,0,
2011-02-24, 03:32:04,VALID,998.803,VALID,0,VALID,92.0361,VALID,0,VALID,22.5306,VALID,101,VALID,0,
2011-02-24, 03:33:04,VALID,998.805,VALID,0,VALID,92.0437,VALID,0,VALID,22.5519,VALID,101,VALID,0,
2011-02-24, 03:34:04,VALID,998.828,VALID,0,VALID,92.0514,VALID,0,VALID,22.5323,VALID,101,VALID,0,
2011-02-24, 03:35:04,VALID,998.832,VALID,0,VALID,92.0437,VALID,0,VALID,22.4916,VALID,101,VALID,0,
2011-02-24, 03:36:04,VALID,998.834,VALID,0,VALID,92.0971,VALID,0,VALID,22.4916,VALID,101,VALID,0,
2011-02-24, 03:37:04,VALID,998.836,VALID,0,VALID,92.0971,VALID,0,VALID,22.4916,VALID,101,VALID,0.263672,
2011-02-24, 03:38:04,VALID,998.82,VALID,0,VALID,92.1353,VALID,0,VALID,22.5128,VALID,98,VALID,0.713672,
2011-02-24, 03:39:04,VALID,998.832,VALID,0,VALID,92.1811,VALID,0,VALID,22.5128,VALID,82,VALID,0.710938,
2011-02-24, 03:40:04,VALID,998.822,VALID,0,VALID,92.2116,VALID,0,VALID,22.5323,VALID,82,VALID,0.582422,
2011-02-24, 03:41:04,VALID,998.859,VALID,0,VALID,92.2345,VALID,0,VALID,22.5323,VALID,83,VALID,0.690234,
2011-02-24, 03:42:04,VALID,998.851,VALID,0,VALID,92.2497,VALID,0,VALID,22.5323,VALID,82,VALID,0.701563,
2011-02-24, 03:43:04,VALID,998.85,VALID,0,VALID,92.2803,VALID,0,VALID,22.5323,VALID,82,VALID,0.675391,
2011-02-24, 03:44:04,VALID,998.85,VALID,0,VALID,92.3184,VALID,0,VALID,22.5323,VALID,83,VALID,0.666406,
2011-02-24, 03:45:04,VALID,998.856,VALID,0,VALID,92.3337,VALID,0,VALID,22.5111,VALID,83,VALID,0.721484,
2011-02-24, 03:46:04,VALID,998.871,VALID,0,VALID,92.3489,VALID,0,VALID,22.5111,VALID,82,VALID,0.610937,